| time (UTC) | temp F | wind direction | speed MPH | gust MPH | rain 1hr in | rain 24hr in | rain mn in | humidity % | barometer mb |
| 20260507193902 | 58 | 281 | 5.0 | 10.0 | 0.00 | 0.01 | 0.01 | 73 | 1011.4 |
| 20260507193402 | 58 | 249 | 6.0 | 11.0 | 0.00 | 0.01 | 0.01 | 73 | 1011.4 |
| 20260507192902 | 58 | 270 | 7.0 | 12.0 | 0.00 | 0.01 | 0.01 | 73 | 1011.3 |
| 20260507192403 | 58 | 240 | 9.0 | 12.0 | 0.00 | 0.01 | 0.01 | 72 | 1011.3 |
| 20260507191902 | 58 | 288 | 4.0 | 10.0 | 0.00 | 0.01 | 0.01 | 72 | 1011.3 |
| 20260507191404 | 58 | 283 | 5.0 | 10.0 | 0.00 | 0.01 | 0.01 | 71 | 1011.2 |
| 20260507190902 | 59 | 264 | 5.0 | 12.0 | 0.00 | 0.01 | 0.01 | 71 | 1011.3 |
| 20260507190401 | 59 | 300 | 8.0 | 12.0 | 0.00 | 0.01 | 0.01 | 70 | 1011.2 |
| 20260507190203 | 59 | 307 | 4.0 | 11.0 | 0.00 | 0.01 | 0.01 | 70 | 1011.0 |
| 20260507185402 | 59 | 291 | 7.0 | 11.0 | 0.00 | 0.01 | 0.01 | 69 | 1011.0 |
| 20260507184903 | 59 | 301 | 5.0 | 9.0 | 0.00 | 0.01 | 0.01 | 69 | 1011.0 |
| 20260507184404 | 60 | 310 | 6.0 | 9.0 | 0.00 | 0.01 | 0.01 | 68 | 1010.9 |
| 20260507183902 | 60 | 303 | 2.0 | 9.0 | 0.00 | 0.01 | 0.01 | 68 | 1011.1 |
| 20260507183403 | 60 | 310 | 4.0 | 9.0 | 0.00 | 0.01 | 0.01 | 67 | 1011.1 |
| 20260507182903 | 60 | 307 | 6.0 | 10.0 | 0.00 | 0.01 | 0.01 | 67 | 1011.2 |
| 20260507182404 | 60 | 316 | 5.0 | 10.0 | 0.00 | 0.01 | 0.01 | 66 | 1011.1 |
| 20260507181905 | 61 | 297 | 6.0 | 10.0 | 0.00 | 0.01 | 0.01 | 66 | 1011.2 |
| 20260507181403 | 61 | 311 | 5.0 | 9.0 | 0.00 | 0.01 | 0.01 | 66 | 1011.1 |
| 20260507180902 | 61 | 327 | 6.0 | 9.0 | 0.00 | 0.01 | 0.01 | 65 | 1011.0 |
| 20260507180402 | 61 | 310 | 4.0 | 6.0 | 0.00 | 0.01 | 0.01 | 64 | 1011.1 |
| 20260507175902 | 61 | 303 | 5.0 | 9.0 | 0.00 | 0.01 | 0.01 | 64 | 1011.1 |
| 20260507175401 | 62 | 310 | 4.0 | 9.0 | 0.00 | 0.01 | 0.01 | 64 | 1011.0 |
| 20260507174900 | 62 | 344 | 2.0 | 7.0 | 0.00 | 0.01 | 0.01 | 63 | 1011.0 |
| 20260507174631 | 62 | 328 | 1.0 | 7.0 | 0.00 | 0.01 | 0.01 | 61 | 1010.9 |
| 20260507173854 | 62 | 288 | 5.0 | 10.0 | 0.00 | 0.01 | 0.01 | 60 | 1010.9 |
| 20260507173354 | 62 | 260 | 8.0 | 10.0 | 0.00 | 0.01 | 0.01 | 60 | 1010.9 |
| 20260507173146 | 62 | 280 | 6.0 | 13.0 | 0.00 | 0.01 | 0.01 | 59 | 1010.8 |
| 20260507172629 | 62 | 264 | 9.0 | 13.0 | 0.00 | 0.01 | 0.01 | 59 | 1010.7 |
| 20260507171854 | 62 | 239 | 8.0 | 12.0 | 0.00 | 0.01 | 0.01 | 60 | 1010.6 |
| 20260507171351 | 62 | 235 | 6.0 | 11.0 | 0.00 | 0.01 | 0.01 | 59 | 1010.7 |
| 20260507170852 | 62 | 202 | 7.0 | 12.0 | 0.00 | 0.01 | 0.01 | 59 | 1010.6 |
| 20260507170349 | 62 | 290 | 6.0 | 13.0 | 0.00 | 0.01 | 0.01 | 59 | 1010.6 |
| 20260507165847 | 62 | 270 | 7.0 | 13.0 | 0.00 | 0.01 | 0.01 | 58 | 1010.6 |
| 20260507165622 | 62 | 250 | 8.0 | 12.0 | 0.00 | 0.01 | 0.01 | 59 | 1010.6 |
| 20260507164845 | 62 | 224 | 5.0 | 9.0 | 0.00 | 0.01 | 0.01 | 60 | 1010.7 |
| 20260507164338 | 62 | 252 | 6.0 | 10.0 | 0.00 | 0.01 | 0.01 | 60 | 1010.6 |
| 20260507163839 | 62 | 214 | 6.0 | 10.0 | 0.00 | 0.01 | 0.01 | 61 | 1010.6 |
| 20260507163338 | 62 | 204 | 4.0 | 9.0 | 0.00 | 0.01 | 0.01 | 62 | 1010.6 |
| 20260507162835 | 61 | 235 | 6.0 | 10.0 | 0.00 | 0.01 | 0.01 | 66 | 1010.6 |
| 20260507162334 | 61 | 173 | 7.0 | 10.0 | 0.00 | 0.01 | 0.01 | 65 | 1010.6 |
| 20260507161835 | 62 | 170 | 5.0 | 10.0 | 0.00 | 0.01 | 0.01 | 65 | 1010.6 |
| 20260507161332 | 62 | 218 | 5.0 | 12.0 | 0.00 | 0.01 | 0.01 | 64 | 1010.6 |
| 20260507160833 | 62 | 181 | 9.0 | 12.0 | 0.00 | 0.01 | 0.01 | 64 | 1010.6 |
| 20260507160331 | 62 | 208 | 5.0 | 9.0 | 0.00 | 0.01 | 0.01 | 67 | 1010.6 |
| 20260507155831 | 62 | 181 | 5.0 | 9.0 | 0.00 | 0.01 | 0.01 | 66 | 1010.6 |
| 20260507155329 | 63 | 225 | 5.0 | 10.0 | 0.00 | 0.01 | 0.01 | 64 | 1010.6 |
| 20260507154831 | 62 | 177 | 6.0 | 10.0 | 0.00 | 0.01 | 0.01 | 64 | 1010.6 |
| 20260507154330 | 63 | 197 | 5.0 | 7.0 | 0.00 | 0.01 | 0.01 | 62 | 1010.6 |
| 20260507154101 | 63 | 222 | 4.0 | 7.0 | 0.00 | 0.01 | 0.01 | 60 | 1010.6 |
| 20260507153330 | 64 | 194 | 4.0 | 9.0 | 0.00 | 0.01 | 0.01 | 56 | 1010.6 |
| 20260507153100 | 64 | 233 | 6.0 | 10.0 | 0.00 | 0.01 | 0.01 | 54 | 1010.6 |
| 20260507152330 | 65 | 236 | 6.0 | 10.0 | 0.00 | 0.01 | 0.01 | 54 | 1010.6 |
| 20260507151829 | 65 | 264 | 7.0 | 12.0 | 0.00 | 0.01 | 0.01 | 53 | 1010.7 |
| 20260507151559 | 66 | 284 | 7.0 | 12.0 | 0.00 | 0.01 | 0.01 | 53 | 1010.6 |
| 20260507150826 | 66 | 290 | 7.0 | 10.0 | 0.00 | 0.01 | 0.01 | 58 | 1010.6 |
| 20260507150553 | 65 | 284 | 2.0 | 9.0 | 0.00 | 0.01 | 0.01 | 56 | 1010.6 |
| 20260507145822 | 64 | 304 | 4.0 | 10.0 | 0.00 | 0.01 | 0.01 | 57 | 1010.7 |
| 20260507145321 | 64 | 243 | 6.0 | 10.0 | 0.00 | 0.01 | 0.01 | 56 | 1010.8 |
| 20260507144822 | 64 | 209 | 5.0 | 7.0 | 0.00 | 0.01 | 0.01 | 57 | 1010.7 |
| 20260507144552 | 64 | 209 | 3.0 | 9.0 | 0.00 | 0.01 | 0.01 | 58 | 1010.8 |
| 20260507143821 | 64 | 180 | 4.0 | 10.0 | 0.00 | 0.01 | 0.01 | 58 | 1010.7 |
| 20260507143321 | 63 | 245 | 6.0 | 11.0 | 0.00 | 0.01 | 0.01 | 59 | 1010.8 |
| 20260507142820 | 64 | 221 | 9.0 | 11.0 | 0.00 | 0.01 | 0.01 | 60 | 1010.9 |
| 20260507142319 | 64 | 170 | 5.0 | 11.0 | 0.00 | 0.01 | 0.01 | 59 | 1010.8 |
| 20260507141818 | 65 | 235 | 8.0 | 11.0 | 0.00 | 0.01 | 0.01 | 61 | 1010.9 |
| 20260507141319 | 64 | 231 | 8.0 | 11.0 | 0.00 | 0.01 | 0.01 | 62 | 1010.8 |
| 20260507140815 | 62 | 184 | 6.0 | 10.0 | 0.00 | 0.01 | 0.01 | 63 | 1010.8 |
| 20260507140315 | 62 | 185 | 5.0 | 9.0 | 0.00 | 0.01 | 0.01 | 60 | 1010.9 |
| 20260507135816 | 62 | 143 | 4.0 | 10.0 | 0.00 | 0.01 | 0.01 | 60 | 1011.0 |
| 20260507135315 | 63 | 208 | 7.0 | 10.0 | 0.00 | 0.01 | 0.01 | 59 | 1011.0 |
| 20260507134814 | 64 | 66 | 3.0 | 7.0 | 0.00 | 0.01 | 0.01 | 57 | 1011.0 |
| 20260507134315 | 65 | 304 | 5.0 | 9.0 | 0.00 | 0.01 | 0.01 | 57 | 1011.0 |
| 20260507133812 | 64 | 283 | 4.0 | 10.0 | 0.00 | 0.01 | 0.01 | 59 | 1011.1 |
| 20260507133310 | 63 | 145 | 6.0 | 10.0 | 0.00 | 0.01 | 0.01 | 62 | 1011.1 |
| 20260507132810 | 62 | 201 | 6.0 | 9.0 | 0.00 | 0.01 | 0.01 | 62 | 1011.2 |
| 20260507132539 | 61 | 233 | 3.0 | 9.0 | 0.00 | 0.01 | 0.01 | 64 | 1011.3 |
| 20260507131810 | 61 | 207 | 6.0 | 9.0 | 0.00 | 0.01 | 0.01 | 63 | 1011.4 |
| 20260507131307 | 61 | 156 | 2.0 | 10.0 | 0.00 | 0.01 | 0.01 | 64 | 1011.3 |
| 20260507130806 | 61 | 201 | 7.0 | 10.0 | 0.00 | 0.01 | 0.01 | 63 | 1011.3 |
| 20260507130305 | 61 | 195 | 5.0 | 9.0 | 0.00 | 0.01 | 0.01 | 63 | 1011.4 |
| 20260507125805 | 61 | 231 | 5.0 | 7.0 | 0.00 | 0.01 | 0.01 | 60 | 1011.4 |
| 20260507125307 | 62 | 187 | 5.0 | 7.0 | 0.00 | 0.01 | 0.01 | 59 | 1011.4 |
| 20260507124803 | 62 | 184 | 3.0 | 7.0 | 0.00 | 0.01 | 0.01 | 61 | 1011.3 |
| 20260507124303 | 60 | 246 | 6.0 | 11.0 | 0.00 | 0.01 | 0.01 | 61 | 1011.4 |
| 20260507123802 | 61 | 205 | 7.0 | 11.0 | 0.00 | 0.01 | 0.01 | 63 | 1011.4 |
| 20260507123302 | 61 | 286 | 8.0 | 11.0 | 0.00 | 0.01 | 0.01 | 64 | 1011.4 |
| 20260507123038 | 61 | 215 | 6.0 | 11.0 | 0.00 | 0.01 | 0.01 | 62 | 1011.4 |
| 20260507122307 | 61 | 214 | 6.0 | 11.0 | 0.00 | 0.01 | 0.01 | 63 | 1011.6 |
| 20260507121802 | 61 | 274 | 6.0 | 11.0 | 0.00 | 0.01 | 0.01 | 64 | 1011.4 |
| 20260507121302 | 61 | 256 | 7.0 | 11.0 | 0.00 | 0.01 | 0.01 | 63 | 1011.6 |
| 20260507120803 | 61 | 253 | 9.0 | 11.0 | 0.00 | 0.01 | 0.01 | 63 | 1011.6 |
| 20260507115803 | 60 | 288 | 5.0 | 12.0 | 0.00 | 0.01 | 0.01 | 65 | 1011.6 |
| 20260507115306 | 60 | 238 | 7.0 | 13.0 | 0.00 | 0.01 | 0.01 | 66 | 1011.6 |
| 20260507115036 | 61 | 291 | 6.0 | 13.0 | 0.00 | 0.01 | 0.01 | 67 | 1011.6 |
| 20260507114301 | 61 | 307 | 6.0 | 12.0 | 0.00 | 0.01 | 0.01 | 66 | 1011.4 |
| 20260507114032 | 61 | 273 | 4.0 | 15.0 | 0.00 | 0.01 | 0.01 | 70 | 1011.4 |
| 20260507113259 | 61 | 229 | 8.0 | 15.0 | 0.00 | 0.01 | 0.01 | 68 | 1011.6 |
| 20260507112800 | 61 | 215 | 3.0 | 9.0 | 0.00 | 0.01 | 0.01 | 64 | 1011.6 |
| 20260507112259 | 61 | 264 | 5.0 | 10.0 | 0.00 | 0.01 | 0.01 | 66 | 1011.6 |
| 20260507111759 | 60 | 236 | 5.0 | 10.0 | 0.00 | 0.01 | 0.01 | 68 | 1011.6 |
| 20260507111259 | 60 | 260 | 8.0 | 10.0 | 0.00 | 0.01 | 0.01 | 69 | 1011.6 |
| 20260507110800 | 60 | 281 | 7.0 | 12.0 | 0.00 | 0.01 | 0.01 | 66 | 1011.7 |
| 20260507110300 | 61 | 248 | 7.0 | 12.0 | 0.00 | 0.01 | 0.01 | 67 | 1011.6 |
| 20260507105754 | 62 | 226 | 8.0 | 12.0 | 0.00 | 0.01 | 0.01 | 63 | 1011.6 |
| 20260507105255 | 61 | 279 | 7.0 | 10.0 | 0.00 | 0.01 | 0.01 | 65 | 1011.7 |
| 20260507105049 | 60 | 334 | 4.0 | 11.0 | 0.00 | 0.01 | 0.01 | 68 | 1011.7 |
| 20260507104253 | 59 | 222 | 6.0 | 11.0 | 0.00 | 0.01 | 0.01 | 68 | 1011.7 |
| 20260507103752 | 60 | 243 | 6.0 | 11.0 | 0.00 | 0.01 | 0.01 | 69 | 1011.8 |
| 20260507103525 | 60 | 259 | 8.0 | 11.0 | 0.00 | 0.01 | 0.01 | 67 | 1011.8 |
| 20260507103027 | 60 | 307 | 1.0 | 9.0 | 0.00 | 0.01 | 0.01 | 69 | 1011.8 |
| 20260507102254 | 59 | 256 | 4.0 | 9.0 | 0.00 | 0.02 | 0.01 | 68 | 1011.9 |
| 20260507101753 | 59 | 298 | 6.0 | 9.0 | 0.00 | 0.02 | 0.01 | 73 | 1011.8 |
| 20260507101528 | 59 | 297 | 5.0 | 9.0 | 0.00 | 0.02 | 0.01 | 70 | 1011.9 |
| 20260507100753 | 58 | 276 | 5.0 | 9.0 | 0.00 | 0.02 | 0.01 | 70 | 1011.9 |
| 20260507100309 | 58 | 193 | 6.0 | 9.0 | 0.00 | 0.02 | 0.01 | 72 | 1012.0 |
| 20260507095753 | 58 | 307 | 4.0 | 10.0 | 0.00 | 0.02 | 0.01 | 71 | 1012.0 |
| 20260507095253 | 59 | 216 | 7.0 | 10.0 | 0.00 | 0.02 | 0.01 | 69 | 1012.0 |
| 20260507094753 | 60 | 310 | 3.0 | 10.0 | 0.00 | 0.02 | 0.01 | 69 | 1011.9 |
| 20260507094253 | 60 | 347 | 4.0 | 10.0 | 0.00 | 0.02 | 0.01 | 71 | 1012.0 |
| 20260507093753 | 59 | 288 | 5.0 | 7.0 | 0.00 | 0.02 | 0.01 | 73 | 1012.0 |
| 20260507093247 | 58 | 341 | 4.0 | 10.0 | 0.00 | 0.02 | 0.01 | 73 | 1011.9 |
| 20260507093022 | 59 | 288 | 5.0 | 10.0 | 0.00 | 0.02 | 0.01 | 72 | 1012.0 |
| 20260507092245 | 58 | 327 | 3.0 | 9.0 | 0.00 | 0.02 | 0.01 | 73 | 1012.0 |
| 20260507092027 | 58 | 4 | 3.0 | 11.0 | 0.00 | 0.02 | 0.01 | 76 | 1012.0 |
| 20260507091244 | 57 | 307 | 4.0 | 11.0 | 0.00 | 0.02 | 0.01 | 78 | 1012.0 |
| 20260507090743 | 56 | 277 | 4.0 | 11.0 | 0.00 | 0.02 | 0.01 | 76 | 1012.0 |
| 20260507090245 | 57 | 212 | 7.0 | 11.0 | 0.00 | 0.02 | 0.01 | 76 | 1012.0 |
| 20260507085742 | 56 | 310 | 9.0 | 11.0 | 0.00 | 0.02 | 0.01 | 79 | 1012.0 |
| 20260507085236 | 56 | 226 | 7.0 | 11.0 | 0.00 | 0.02 | 0.01 | 76 | 1012.0 |
| 20260507084735 | 57 | 330 | 7.0 | 12.0 | 0.00 | 0.02 | 0.01 | 76 | 1011.9 |
| 20260507084235 | 57 | 310 | 9.0 | 12.0 | 0.00 | 0.02 | 0.01 | 76 | 1011.9 |
| 20260507083735 | 57 | 229 | 5.0 | 11.0 | 0.00 | 0.02 | 0.01 | 76 | 1011.9 |
| 20260507083235 | 56 | 260 | 7.0 | 11.0 | 0.00 | 0.02 | 0.01 | 77 | 1011.8 |
| 20260507082735 | 56 | 307 | 9.0 | 11.0 | 0.00 | 0.02 | 0.01 | 79 | 1011.8 |
| 20260507082235 | 55 | 264 | 7.0 | 11.0 | 0.00 | 0.02 | 0.01 | 80 | 1011.8 |
| 20260507081734 | 54 | 304 | 4.0 | 13.0 | 0.00 | 0.02 | 0.01 | 82 | 1011.9 |
| 20260507081453 | 54 | 267 | 6.0 | 13.0 | 0.00 | 0.02 | 0.01 | 83 | 1012.0 |
| 20260507080959 | 54 | 286 | 5.0 | 7.0 | 0.00 | 0.02 | 0.01 | 85 | 1011.9 |
| 20260507080234 | 54 | 301 | 4.0 | 6.0 | 0.00 | 0.02 | 0.01 | 86 | 1011.9 |
| 20260507075730 | 53 | 277 | 5.0 | 6.0 | 0.00 | 0.02 | 0.01 | 86 | 1011.9 |
| 20260507075229 | 53 | 279 | 3.0 | 6.0 | 0.00 | 0.02 | 0.01 | 86 | 1011.9 |
| 20260507074729 | 53 | 266 | 1.0 | 4.0 | 0.00 | 0.02 | 0.01 | 88 | 1011.9 |
| 20260507074229 | 52 | 281 | 2.0 | 5.0 | 0.00 | 0.02 | 0.01 | 88 | 1011.9 |
| 20260507073731 | 52 | 307 | 3.0 | 5.0 | 0.00 | 0.02 | 0.01 | 90 | 1011.9 |
| 20260507073229 | 52 | 281 | 1.0 | 4.0 | 0.00 | 0.02 | 0.01 | 91 | 1011.9 |
| 20260507072728 | 52 | 310 | 1.0 | 4.0 | 0.00 | 0.02 | 0.01 | 91 | 1011.9 |
| 20260507071729 | 51 | 310 | 1.0 | 3.0 | 0.00 | 0.02 | 0.01 | 93 | 1011.9 |
| 20260507071221 | 51 | 310 | 0.0 | 3.0 | 0.00 | 0.02 | 0.01 | 92 | 1011.8 |
| 20260507070718 | 51 | 310 | 2.0 | 3.0 | 0.00 | 0.02 | 0.01 | 93 | 1011.9 |
| 20260507070219 | 51 | 310 | 2.0 | 3.0 | 0.00 | 0.02 | 0.01 | 93 | 1011.7 |
| 20260507065716 | 50 | 310 | 0.0 | 3.0 | 0.00 | 0.02 | 0.01 | 93 | 1011.8 |
| 20260507065214 | 50 | 310 | 1.0 | 5.0 | 0.00 | 0.02 | 0.01 | 93 | 1011.7 |
| 20260507064713 | 50 | 295 | 2.0 | 5.0 | 0.00 | 0.02 | 0.01 | 93 | 1011.8 |
| 20260507064213 | 50 | 270 | 2.0 | 5.0 | 0.00 | 0.02 | 0.01 | 93 | 1011.8 |
| 20260507063930 | 50 | 204 | 2.0 | 3.0 | 0.00 | 0.02 | 0.01 | 94 | 1011.8 |
| 20260507063224 | 50 | 204 | 0.0 | 1.0 | 0.00 | 0.02 | 0.01 | 94 | 1011.7 |
| 20260507062931 | 50 | 204 | 0.0 | 0.0 | 0.00 | 0.02 | 0.01 | 94 | 1011.7 |
| 20260507062204 | 49 | 204 | 0.0 | 3.0 | 0.00 | 0.02 | 0.01 | 94 | 1011.6 |
| 20260507061705 | 49 | 204 | 0.0 | 4.0 | 0.00 | 0.02 | 0.01 | 94 | 1011.7 |
| 20260507061425 | 49 | 204 | 3.0 | 5.0 | 0.00 | 0.02 | 0.01 | 94 | 1011.6 |
| 20260507060704 | 49 | 204 | 3.0 | 5.0 | 0.00 | 0.02 | 0.01 | 94 | 1011.3 |
| 20260507060203 | 49 | 191 | 3.0 | 4.0 | 0.00 | 0.02 | 0.01 | 94 | 1011.3 |
| 20260507055705 | 49 | 169 | 2.0 | 3.0 | 0.00 | 0.02 | 0.01 | 94 | 1011.3 |
| 20260507055203 | 49 | 169 | 1.0 | 3.0 | 0.00 | 0.02 | 0.01 | 94 | 1011.3 |
| 20260507054922 | 49 | 169 | 2.0 | 3.0 | 0.00 | 0.02 | 0.01 | 94 | 1011.3 |
| 20260507054202 | 49 | 271 | 0.0 | 2.0 | 0.00 | 0.02 | 0.01 | 94 | 1011.3 |
| 20260507053702 | 49 | 271 | 0.0 | 2.0 | 0.00 | 0.02 | 0.01 | 94 | 1011.3 |
| 20260507053431 | 49 | 271 | 0.0 | 0.0 | 0.00 | 0.02 | 0.01 | 94 | 1011.2 |
| 20260507052702 | 49 | 271 | 0.0 | 0.0 | 0.00 | 0.02 | 0.01 | 94 | 1011.0 |
| 20260507052204 | 49 | 271 | 0.0 | 3.0 | 0.00 | 0.02 | 0.01 | 94 | 1011.1 |
| 20260507051701 | 49 | 271 | 0.0 | 5.0 | 0.00 | 0.02 | 0.01 | 94 | 1011.1 |
| 20260507051203 | 49 | 271 | 4.0 | 5.0 | 0.00 | 0.02 | 0.01 | 94 | 1011.0 |
| 20260507050702 | 49 | 248 | 3.0 | 5.0 | 0.00 | 0.02 | 0.01 | 94 | 1010.9 |
| 20260507050204 | 48 | 277 | 0.0 | 4.0 | 0.00 | 0.02 | 0.01 | 94 | 1010.8 |
| 20260507045921 | 48 | 277 | 2.0 | 4.0 | 0.00 | 0.02 | 0.01 | 94 | 1010.8 |
| 20260507045159 | 48 | 215 | 2.0 | 3.0 | 0.00 | 0.02 | 0.01 | 94 | 1010.8 |
| 20260507044658 | 48 | 215 | 2.0 | 2.0 | 0.00 | 0.02 | 0.01 | 94 | 1010.7 |
| 20260507044157 | 48 | 215 | 0.0 | 1.0 | 0.00 | 0.02 | 0.01 | 94 | 1010.7 |
| 20260507043914 | 48 | 215 | 0.0 | 4.0 | 0.00 | 0.02 | 0.01 | 94 | 1010.7 |
| 20260507043155 | 48 | 215 | 2.0 | 4.0 | 0.00 | 0.02 | 0.01 | 94 | 1010.6 |
| 20260507042653 | 48 | 214 | 3.0 | 3.0 | 0.00 | 0.02 | 0.01 | 94 | 1010.6 |
| 20260507042153 | 48 | 139 | 0.0 | 0.0 | 0.00 | 0.02 | 0.01 | 94 | 1010.4 |
| 20260507041653 | 48 | 139 | 0.0 | 0.0 | 0.00 | 0.02 | 0.01 | 94 | 1010.4 |
| 20260507041150 | 48 | 139 | 0.0 | 0.0 | 0.00 | 0.02 | 0.01 | 94 | 1010.4 |
| 20260507040650 | 48 | 139 | 0.0 | 0.0 | 0.00 | 0.02 | 0.01 | 94 | 1010.4 |
| 20260507040149 | 48 | 139 | 0.0 | 3.0 | 0.00 | 0.02 | 0.01 | 94 | 1010.4 |
| 20260507035642 | 48 | 139 | 2.0 | 3.0 | 0.00 | 0.02 | 0.01 | 94 | 1010.4 |
| 20260507035142 | 48 | 180 | 1.0 | 3.0 | 0.00 | 0.02 | 0.01 | 94 | 1010.4 |
| 20260507034644 | 48 | 190 | 2.0 | 3.0 | 0.00 | 0.02 | 0.01 | 94 | 1010.4 |
| 20260507034142 | 48 | 190 | 3.0 | 3.0 | 0.00 | 0.02 | 0.01 | 94 | 1010.4 |
| 20260507033642 | 48 | 74 | 1.0 | 4.0 | 0.00 | 0.02 | 0.01 | 94 | 1010.4 |
| 20260507033139 | 48 | 74 | 1.0 | 4.0 | 0.00 | 0.02 | 0.01 | 94 | 1010.3 |
| 20260507032639 | 48 | 74 | 2.0 | 4.0 | 0.00 | 0.02 | 0.01 | 94 | 1010.3 |
| 20260507032136 | 48 | 74 | 0.0 | 0.0 | 0.00 | 0.02 | 0.01 | 94 | 1010.3 |
| 20260507031638 | 48 | 74 | 0.0 | 1.0 | 0.00 | 0.02 | 0.01 | 94 | 1010.3 |
| 20260507031134 | 48 | 74 | 0.0 | 3.0 | 0.00 | 0.02 | 0.01 | 94 | 1010.4 |
| 20260507030134 | 48 | 74 | 2.0 | 4.0 | 0.00 | 0.02 | 0.01 | 94 | 1010.2 |
| 20260507025633 | 48 | 74 | 3.0 | 4.0 | 0.00 | 0.02 | 0.01 | 94 | 1010.3 |
| 20260507024645 | 48 | 74 | 3.0 | 3.0 | 0.00 | 0.02 | 0.01 | 94 | 1010.3 |
| 20260507023631 | 49 | 73 | 0.0 | 0.0 | 0.00 | 0.02 | 0.01 | 94 | 1010.2 |
| 20260507023131 | 49 | 73 | 0.0 | 2.0 | 0.01 | 0.02 | 0.01 | 94 | 1010.1 |
| 20260507022630 | 49 | 73 | 1.0 | 2.0 | 0.01 | 0.02 | 0.01 | 94 | 1010.2 |
| 20260507022131 | 49 | 73 | 1.0 | 3.0 | 0.01 | 0.02 | 0.01 | 94 | 1010.1 |
| 20260507021631 | 49 | 73 | 2.0 | 3.0 | 0.01 | 0.02 | 0.01 | 94 | 1010.2 |
| 20260507021130 | 49 | 180 | 1.0 | 4.0 | 0.01 | 0.02 | 0.01 | 94 | 1010.2 |
| 20260507020630 | 49 | 180 | 2.0 | 4.0 | 0.01 | 0.02 | 0.01 | 94 | 1010.3 |
| 20260507020350 | 49 | 209 | 3.0 | 5.0 | 0.01 | 0.02 | 0.01 | 94 | 1010.3 |
| 20260507015630 | 49 | 190 | 3.0 | 5.0 | 0.01 | 0.01 | 0.01 | 94 | 1010.2 |
| 20260507015131 | 49 | 187 | 4.0 | 6.0 | 0.01 | 0.01 | 0.01 | 94 | 1010.2 |
| 20260507014850 | 49 | 193 | 5.0 | 6.0 | 0.01 | 0.01 | 0.01 | 94 | 1010.1 |
| 20260507014133 | 49 | 170 | 3.0 | 3.0 | 0.01 | 0.01 | 0.01 | 94 | 1009.9 |
| 20260507013631 | 49 | 170 | 2.0 | 3.0 | 0.01 | 0.01 | 0.01 | 94 | 1009.9 |
| 20260507013131 | 49 | 170 | 2.0 | 5.0 | 0.00 | 0.01 | 0.00 | 94 | 1009.8 |
| 20260507012631 | 49 | 87 | 3.0 | 6.0 | 0.00 | 0.01 | 0.00 | 94 | 1009.8 |
| 20260507012130 | 49 | 16 | 4.0 | 7.0 | 0.00 | 0.01 | 0.00 | 94 | 1009.7 |
| 20260507011631 | 49 | 42 | 4.0 | 7.0 | 0.00 | 0.01 | 0.00 | 94 | 1009.8 |
| 20260507011131 | 48 | 16 | 5.0 | 6.0 | 0.00 | 0.02 | 0.00 | 93 | 1010.0 |
| 20260507010629 | 48 | 235 | 0.0 | 3.0 | 0.00 | 0.02 | 0.00 | 93 | 1010.1 |
| 20260507010359 | 48 | 235 | 1.0 | 3.0 | 0.00 | 0.02 | 0.00 | 93 | 1010.1 |
| 20260507005622 | 48 | 235 | 0.0 | 2.0 | 0.00 | 0.02 | 0.00 | 93 | 1010.1 |
| 20260507005121 | 48 | 235 | 0.0 | 4.0 | 0.00 | 0.02 | 0.00 | 93 | 1010.1 |
| 20260507004855 | 48 | 235 | 2.0 | 4.0 | 0.00 | 0.02 | 0.00 | 93 | 1010.1 |
| 20260507004123 | 48 | 235 | 4.0 | 4.0 | 0.00 | 0.02 | 0.00 | 93 | 1010.1 |
| 20260507003621 | 48 | 235 | 3.0 | 4.0 | 0.00 | 0.02 | 0.00 | 93 | 1010.0 |
| 20260507003342 | 48 | 235 | 3.0 | 4.0 | 0.00 | 0.02 | 0.00 | 93 | 1010.0 |
| 20260507002617 | 48 | 200 | 1.0 | 2.0 | 0.00 | 0.02 | 0.00 | 93 | 1009.9 |
| 20260507002118 | 48 | 200 | 0.0 | 4.0 | 0.00 | 0.02 | 0.00 | 93 | 1009.9 |
| 20260507001852 | 48 | 200 | 0.0 | 5.0 | 0.00 | 0.02 | 0.00 | 93 | 1009.8 |
| 20260507001116 | 48 | 224 | 3.0 | 5.0 | 0.00 | 0.02 | 0.00 | 93 | 1009.9 |
| 20260507000616 | 48 | 193 | 3.0 | 5.0 | 0.00 | 0.02 | 0.00 | 93 | 1009.9 |
| 20260507000114 | 49 | 166 | 3.0 | 5.0 | 0.00 | 0.02 | 0.00 | 93 | 1009.8 |
| 20260506235613 | 49 | 147 | 4.0 | 5.0 | 0.00 | 0.02 | 0.00 | 93 | 1009.9 |
| 20260506235114 | 49 | 112 | 3.0 | 3.0 | 0.00 | 0.02 | 0.00 | 93 | 1009.8 |
| 20260506234833 | 49 | 30 | 3.0 | 3.0 | 0.00 | 0.02 | 0.00 | 93 | 1009.7 |
| 20260506234111 | 49 | 290 | 0.0 | 4.0 | 0.00 | 0.02 | 0.00 | 93 | 1009.8 |
| 20260506233610 | 49 | 290 | 0.0 | 4.0 | 0.00 | 0.02 | 0.00 | 93 | 1009.9 |
| 20260506233109 | 49 | 270 | 3.0 | 5.0 | 0.00 | 0.02 | 0.00 | 93 | 1010.0 |
| 20260506232607 | 49 | 245 | 2.0 | 5.0 | 0.00 | 0.02 | 0.00 | 93 | 1010.1 |
| 20260506232109 | 49 | 245 | 3.0 | 7.0 | 0.00 | 0.02 | 0.00 | 92 | 1010.1 |
| 20260506231608 | 48 | 215 | 6.0 | 7.0 | 0.00 | 0.02 | 0.00 | 92 | 1010.1 |
| 20260506231108 | 48 | 337 | 0.0 | 7.0 | 0.00 | 0.02 | 0.00 | 92 | 1010.0 |
| 20260506230607 | 48 | 263 | 3.0 | 7.0 | 0.00 | 0.02 | 0.00 | 93 | 1010.0 |
| 20260506230333 | 48 | 238 | 6.0 | 7.0 | 0.00 | 0.02 | 0.00 | 93 | 1010.0 |
| 20260506225603 | 48 | 8 | 0.0 | 6.0 | 0.00 | 0.02 | 0.00 | 93 | 1009.9 |
| 20260506225102 | 48 | 8 | 6.0 | 6.0 | 0.00 | 0.02 | 0.00 | 93 | 1009.7 |
| 20260506224602 | 48 | 310 | 2.0 | 5.0 | 0.00 | 0.02 | 0.00 | 92 | 1009.9 |
| 20260506224102 | 48 | 280 | 3.0 | 5.0 | 0.00 | 0.02 | 0.00 | 92 | 1010.0 |
| 20260506223559 | 48 | 257 | 4.0 | 5.0 | 0.00 | 0.02 | 0.00 | 93 | 1009.9 |
| 20260506223058 | 48 | 257 | 2.0 | 5.0 | 0.00 | 0.02 | 0.00 | 93 | 1009.8 |
| 20260506222559 | 48 | 257 | 3.0 | 5.0 | 0.00 | 0.02 | 0.00 | 93 | 1009.8 |
| 20260506222057 | 48 | 226 | 3.0 | 4.0 | 0.00 | 0.02 | 0.00 | 92 | 1009.8 |
| 20260506221553 | 48 | 135 | 2.0 | 3.0 | 0.00 | 0.02 | 0.00 | 92 | 1009.7 |
| 20260506221052 | 49 | 135 | 0.0 | 1.0 | 0.00 | 0.02 | 0.00 | 93 | 1009.7 |
| 20260506220553 | 49 | 135 | 0.0 | 1.0 | 0.00 | 0.02 | 0.00 | 92 | 1009.5 |
| 20260506220053 | 49 | 135 | 0.0 | 2.0 | 0.00 | 0.02 | 0.00 | 92 | 1009.7 |
| 20260506215553 | 49 | 135 | 0.0 | 3.0 | 0.00 | 0.02 | 0.02 | 92 | 1009.5 |
| 20260506215053 | 49 | 135 | 1.0 | 3.0 | 0.00 | 0.02 | 0.02 | 92 | 1009.5 |
| 20260506214553 | 49 | 159 | 2.0 | 3.0 | 0.00 | 0.02 | 0.02 | 93 | 1009.5 |
| 20260506214052 | 49 | 159 | 2.0 | 3.0 | 0.00 | 0.02 | 0.02 | 93 | 1009.4 |
| 20260506213815 | 49 | 159 | 2.0 | 3.0 | 0.00 | 0.02 | 0.02 | 93 | 1009.4 |
| 20260506213052 | 49 | 135 | 2.0 | 4.0 | 0.00 | 0.02 | 0.02 | 93 | 1009.2 |
| 20260506212552 | 49 | 135 | 0.0 | 6.0 | 0.00 | 0.02 | 0.02 | 93 | 1009.2 |
| 20260506212052 | 49 | 75 | 4.0 | 6.0 | 0.00 | 0.02 | 0.02 | 93 | 1009.2 |
| 20260506211605 | 49 | 53 | 3.0 | 5.0 | 0.00 | 0.02 | 0.02 | 92 | 1009.2 |
| 20260506211052 | 49 | 19 | 1.0 | 5.0 | 0.00 | 0.02 | 0.02 | 92 | 1009.2 |
| 20260506210812 | 49 | 22 | 1.0 | 4.0 | 0.00 | 0.02 | 0.02 | 92 | 1009.2 |
| 20260506210058 | 49 | 12 | 1.0 | 5.0 | 0.00 | 0.02 | 0.02 | 92 | 1009.2 |
| 20260506205552 | 49 | 11 | 2.0 | 6.0 | 0.00 | 0.02 | 0.02 | 92 | 1009.2 |
| 20260506205051 | 49 | 42 | 3.0 | 9.0 | 0.00 | 0.02 | 0.02 | 92 | 1009.1 |
| 20260506204552 | 49 | 90 | 4.0 | 9.0 | 0.00 | 0.02 | 0.02 | 92 | 1009.0 |
| 20260506204050 | 49 | 91 | 6.0 | 9.0 | 0.00 | 0.02 | 0.02 | 92 | 1009.0 |
| 20260506203551 | 49 | 87 | 5.0 | 6.0 | 0.00 | 0.02 | 0.02 | 91 | 1008.9 |
| 20260506203052 | 49 | 87 | 4.0 | 5.0 | 0.00 | 0.02 | 0.02 | 92 | 1008.9 |
| 20260506202550 | 50 | 73 | 3.0 | 6.0 | 0.00 | 0.02 | 0.02 | 91 | 1008.9 |
| 20260506202313 | 50 | 64 | 3.0 | 6.0 | 0.00 | 0.02 | 0.02 | 91 | 1008.9 |
| 20260506201551 | 50 | 81 | 3.0 | 4.0 | 0.00 | 0.02 | 0.02 | 91 | 1008.9 |
| 20260506201044 | 50 | 52 | 2.0 | 6.0 | 0.00 | 0.02 | 0.02 | 91 | 1008.8 |
| 20260506200545 | 50 | 74 | 4.0 | 9.0 | 0.00 | 0.02 | 0.02 | 91 | 1008.7 |
| 20260506200051 | 50 | 67 | 4.0 | 9.0 | 0.00 | 0.02 | 0.02 | 91 | 1008.7 |
| 20260506195757 | 50 | 46 | 6.0 | 11.0 | 0.00 | 0.02 | 0.02 | 91 | 1008.6 |
| 20260506195037 | 51 | 59 | 7.0 | 11.0 | 0.00 | 0.02 | 0.02 | 90 | 1008.6 |
| 20260506194758 | 51 | 67 | 6.0 | 11.0 | 0.00 | 0.02 | 0.02 | 90 | 1008.5 |